Terminal Aerodrome Forecast
Issued by NWS

Home | Current Version | Previous Version | Text Only | Print | Product List | Glossary On
Versions: 1 2 3 4 5 6 7 8 9 10 11 12 13 14 15 16 17 18 19 20 21 22 23 24 25 26 27 28 29 30 31 32 33 34 35 36 37 38 39 40 41 42 43 44 45 46
008
FTUS43 KDMX 211204 AAA
TAFFOD
TAF AMD
KFOD 211204Z 2112/2212 VRB03KT 3/4SM BR VV005
      TEMPO 2112/2114 2SM BR BKN002
     FM211500 20005KT 5SM BR SKC
     FM211700 21012G18KT P6SM SKC
     FM220000 20007KT P6SM SKC
     FM220200 21010KT P6SM SKC WS020/24035KT
     FM220400 21009KT P6SM SKC=

USA.gov is the U.S. government's official web portal to all federal, state and local government web resources and services.